Date,TemperatureHighF,TemperatureAvgF,TemperatureLowF,DewpointHighF,DewpointAvgF,DewpointLowF,HumidityHigh,HumidityAvg,HumidityLow,PressureMaxIn,PressureMinIn,WindSpeedMaxMPH,WindSpeedAvgMPH,GustSpeedMaxMPH,PrecipitationSumIn
2013-2-1,30.2,25.7,19.7,19.0,10.7,4.9,74,53,39,30.13,29.62,20,4,20,0.00
2013-2-2,28.5,22.8,15.3,17.8,9.8,5.3,83,58,38,30.26,30.05,16,2,16,0.00
2013-2-3,28.4,22.9,17.5,19.1,17.5,15.5,94,80,63,30.05,29.75,9,1,9,0.00
2013-2-4,28.2,23.1,18.4,17.0,11.2,5.7,90,62,40,29.95,29.75,14,2,14,0.00
2013-2-5,28.0,24.1,20.9,22.5,16.8,11.4,92,74,64,30.00,29.91,5,1,5,0.00
2013-2-6,36.2,28.8,22.5,26.5,18.1,0.7,96,68,32,30.33,29.90,17,2,17,0.02
2013-2-7,31.7,24.0,15.0,14.7,8.8,5.3,78,53,36,30.52,30.32,10,1,10,0.00
2013-2-8,31.6,27.0,19.1,29.9,22.5,7.2,95,84,46,30.42,29.61,32,6,32,0.00
2013-2-9,24.8,20.6,15.3,20.4,10.4,-2.1,94,68,37,30.26,29.66,29,9,29,0.00
2013-2-10,34.6,20.1,2.2,10.4,2.2,-4.8,79,48,24,30.45,30.26,9,1,9,0.00
2013-2-11,44.9,35.6,24.0,44.1,31.8,10.4,99,87,53,30.34,29.63,11,2,11,0.26
2013-2-12,42.9,37.7,33.1,37.8,29.3,23.1,95,73,55,29.92,29.65,20,2,20,0.00
2013-2-13,41.7,35.9,32.8,25.7,24.0,20.9,70,62,50,29.89,29.69,14,2,14,0.00
2013-2-14,43.2,33.7,22.2,29.1,25.1,21.4,98,73,45,29.98,29.70,11,1,11,0.00
2013-2-15,48.7,39.5,32.5,34.2,32.3,28.1,95,77,55,29.98,29.89,11,3,11,0.00
2013-2-16,36.9,32.8,27.9,32.8,26.1,18.4,97,78,52,29.95,29.70,22,5,22,0.03
2013-2-17,27.9,21.7,14.3,18.8,5.0,0.9,68,49,38,29.83,29.51,30,10,30,0.00
2013-2-18,30.2,20.5,12.4,8.0,1.3,-3.2,57,44,27,30.18,29.83,23,4,23,0.00
2013-2-19,45.9,36.3,22.1,41.7,26.9,6.3,98,70,46,30.19,29.58,17,2,17,0.19
2013-2-20,38.7,30.1,24.3,37.9,17.1,8.6,97,60,41,29.85,29.58,20,4,20,0.00
2013-2-21,28.3,24.4,21.5,14.8,12.9,10.5,72,61,52,30.27,29.84,25,4,25,0.00
2013-2-22,40.4,28.9,15.5,26.8,20.1,12.0,90,70,48,30.39,30.26,7,1,7,0.00
2013-2-23,36.7,34.0,32.4,33.8,30.2,25.1,97,86,74,30.30,29.84,9,2,9,0.07
2013-2-24,35.7,33.6,31.4,34.8,32.7,29.8,98,97,93,29.91,29.71,17,4,17,0.11
2013-2-25,39.4,34.0,25.8,32.0,29.4,24.3,96,84,71,30.23,29.90,10,2,10,0.06
2013-2-26,41.2,36.0,31.6,32.5,29.1,25.0,92,77,60,30.31,30.07,8,1,8,0.00
2013-2-27,43.3,39.1,34.6,41.6,37.2,30.2,97,93,81,30.07,29.54,16,2,16,1.02
2013-2-28,44.7,37.2,32.8,39.6,35.0,32.3,98,92,77,29.62,29.53,8,1,8,0.00